| time (UTC) | temp C | wind direction | speed KPH | gust KPH | rain 1hr cm | rain 24hr cm | rain mn cm | humidity % | barometer mb |
| 20260507104556 | 11 | 0 | 0.0 | 0.0 | 0.00 | 0.89 | 0.38 | 94 | 1012.6 |
| 20260507103056 | 11 | 0 | 0.0 | 0.0 | 0.00 | 0.89 | 0.38 | 94 | 1012.3 |
| 20260507101554 | 11 | 0 | 0.0 | 0.0 | 0.00 | 0.89 | 0.38 | 94 | 1012.1 |
| 20260507100056 | 11 | 0 | 0.0 | 0.0 | 0.00 | 0.89 | 0.38 | 94 | 1012.0 |
| 20260507094610 | 11 | 0 | 0.0 | 0.0 | 0.00 | 0.89 | 0.38 | 94 | 1012.2 |
| 20260507093059 | 11 | 0 | 0.0 | 0.0 | 0.00 | 0.89 | 0.38 | 94 | 1012.2 |
| 20260507091640 | 11 | 0 | 0.0 | 0.0 | 0.00 | 0.89 | 0.38 | 94 | 1012.3 |
| 20260507090107 | 11 | 0 | 0.0 | 0.0 | 0.00 | 0.89 | 0.38 | 94 | 1012.2 |
| 20260507084559 | 11 | 0 | 0.0 | 0.0 | 0.00 | 0.89 | 0.38 | 94 | 1012.0 |
| 20260507083056 | 11 | 0 | 0.0 | 0.0 | 0.03 | 0.89 | 0.38 | 93 | 1011.7 |
| 20260507081557 | 11 | 0 | 0.0 | 0.0 | 0.03 | 0.89 | 0.38 | 93 | 1011.4 |
| 20260507080056 | 11 | 0 | 0.0 | 1.6 | 0.03 | 0.89 | 0.38 | 93 | 1011.1 |
| 20260507074551 | 11 | 0 | 0.0 | 0.0 | 0.03 | 0.89 | 0.38 | 93 | 1011.1 |
| 20260507073050 | 11 | 0 | 0.0 | 1.6 | 0.00 | 0.86 | 0.36 | 92 | 1011.2 |
| 20260507071555 | 11 | 0 | 0.0 | 4.8 | 0.00 | 0.86 | 0.36 | 92 | 1011.3 |
| 20260507070100 | 12 | 207 | 0.0 | 3.2 | 0.00 | 0.86 | 0.36 | 92 | 1011.4 |
| 20260507064552 | 12 | 0 | 0.0 | 0.0 | 0.03 | 0.86 | 0.36 | 93 | 1011.5 |
| 20260507063055 | 12 | 0 | 0.0 | 0.0 | 0.03 | 0.86 | 0.36 | 93 | 1011.0 |
| 20260507061554 | 12 | 0 | 0.0 | 0.0 | 0.03 | 0.86 | 0.36 | 93 | 1011.3 |
| 20260507060103 | 12 | 0 | 0.0 | 0.0 | 0.03 | 0.86 | 0.36 | 93 | 1011.3 |
| 20260507054558 | 12 | 0 | 0.0 | 0.0 | 0.20 | 0.84 | 0.33 | 92 | 1011.6 |
| 20260507053055 | 13 | 0 | 0.0 | 0.0 | 0.33 | 0.84 | 0.33 | 92 | 1011.8 |
| 20260507051555 | 13 | 0 | 0.0 | 0.0 | 0.33 | 0.84 | 0.33 | 91 | 1011.4 |
| 20260507050053 | 13 | 0 | 0.0 | 1.6 | 0.33 | 0.84 | 0.33 | 90 | 1011.5 |
| 20260507044555 | 13 | 280 | 0.0 | 1.6 | 0.13 | 0.64 | 0.13 | 89 | 1011.9 |
| 20260507043059 | 14 | 278 | 0.0 | 1.6 | 0.00 | 0.51 | 0.00 | 86 | 1011.5 |
| 20260507041601 | 15 | 0 | 0.0 | 6.4 | 0.00 | 0.51 | 0.00 | 84 | 1011.5 |
| 20260507040051 | 15 | 290 | 0.0 | 6.4 | 0.00 | 0.51 | 0.00 | 80 | 1011.2 |
| 20260507034559 | 16 | 0 | 0.0 | 3.2 | 0.00 | 0.51 | 0.51 | 82 | 1010.7 |
| 20260507033051 | 16 | 0 | 0.0 | 3.2 | 0.00 | 0.51 | 0.51 | 82 | 1010.7 |
| 20260507031553 | 16 | 289 | 0.0 | 1.6 | 0.00 | 0.51 | 0.51 | 80 | 1010.8 |
| 20260507030051 | 16 | 0 | 0.0 | 1.6 | 0.00 | 0.51 | 0.51 | 81 | 1010.5 |
| 20260507024556 | 16 | 0 | 0.0 | 3.2 | 0.00 | 0.51 | 0.51 | 80 | 1010.4 |
| 20260507023054 | 16 | 287 | 0.0 | 6.4 | 0.00 | 0.51 | 0.51 | 80 | 1010.3 |
| 20260507021554 | 17 | 0 | 0.0 | 4.8 | 0.00 | 0.51 | 0.51 | 81 | 1010.2 |
| 20260507020054 | 17 | 288 | 1.6 | 4.8 | 0.00 | 0.51 | 0.51 | 83 | 1010.3 |
| 20260507014551 | 18 | 287 | 0.0 | 4.8 | 0.00 | 0.51 | 0.51 | 86 | 1009.8 |
| 20260507013053 | 18 | 347 | 0.0 | 0.0 | 0.00 | 0.51 | 0.51 | 85 | 1010.2 |
| 20260507011553 | 18 | 0 | 0.0 | 1.6 | 0.00 | 0.51 | 0.51 | 85 | 1010.1 |
| 20260507010111 | 18 | 0 | 0.0 | 1.6 | 0.00 | 0.51 | 0.51 | 86 | 1010.2 |
| 20260507004547 | 18 | 0 | 0.0 | 0.0 | 0.00 | 0.51 | 0.51 | 86 | 1009.9 |
| 20260507003049 | 18 | 0 | 0.0 | 0.0 | 0.00 | 0.51 | 0.51 | 85 | 1009.6 |
| 20260507001559 | 19 | 0 | 0.0 | 0.0 | 0.00 | 0.51 | 0.51 | 84 | 1009.4 |
| 20260507000101 | 19 | 0 | 0.0 | 0.0 | 0.00 | 0.51 | 0.51 | 83 | 1009.3 |
| 20260506234555 | 20 | 0 | 0.0 | 0.0 | 0.00 | 0.51 | 0.51 | 83 | 1009.1 |
| 20260506233059 | 20 | 0 | 0.0 | 1.6 | 0.00 | 0.51 | 0.51 | 82 | 1009.0 |
| 20260506231550 | 20 | 0 | 0.0 | 0.0 | 0.00 | 0.51 | 0.51 | 81 | 1008.8 |
| 20260506230054 | 20 | 0 | 0.0 | 0.0 | 0.00 | 0.51 | 0.51 | 80 | 1008.8 |
| 20260506224553 | 20 | 0 | 0.0 | 0.0 | 0.00 | 0.51 | 0.51 | 80 | 1008.7 |
| 20260506223058 | 20 | 0 | 0.0 | 0.0 | 0.00 | 0.51 | 0.51 | 80 | 1008.7 |
| 20260506221550 | 20 | 0 | 0.0 | 0.0 | 0.00 | 0.51 | 0.51 | 79 | 1008.8 |
| 20260506220052 | 20 | 0 | 0.0 | 3.2 | 0.00 | 0.51 | 0.51 | 78 | 1008.8 |
| 20260506214601 | 21 | 0 | 0.0 | 3.2 | 0.00 | 0.51 | 0.51 | 77 | 1008.7 |
| 20260506213056 | 21 | 0 | 0.0 | 3.2 | 0.00 | 0.51 | 0.51 | 77 | 1008.5 |
| 20260506211554 | 21 | 0 | 0.0 | 3.2 | 0.00 | 0.51 | 0.51 | 77 | 1008.5 |
| 20260506210052 | 21 | 0 | 0.0 | 3.2 | 0.00 | 0.51 | 0.51 | 76 | 1008.3 |
| 20260506204551 | 21 | 0 | 0.0 | 1.6 | 0.00 | 0.51 | 0.51 | 75 | 1008.1 |
| 20260506203053 | 21 | 0 | 0.0 | 8.0 | 0.00 | 0.51 | 0.51 | 74 | 1008.3 |
| 20260506201552 | 22 | 98 | 0.0 | 6.4 | 0.00 | 0.51 | 0.51 | 71 | 1008.2 |
| 20260506200051 | 23 | 317 | 0.0 | 6.4 | 0.00 | 0.51 | 0.51 | 70 | 1008.2 |
| 20260506194550 | 22 | 207 | 0.0 | 4.8 | 0.00 | 0.51 | 0.51 | 74 | 1008.3 |
| 20260506193051 | 21 | 332 | 0.0 | 4.8 | 0.00 | 0.51 | 0.51 | 75 | 1008.3 |
| 20260506191553 | 21 | 190 | 1.6 | 4.8 | 0.00 | 0.51 | 0.51 | 77 | 1008.5 |
| 20260506190052 | 20 | 306 | 0.0 | 4.8 | 0.00 | 0.51 | 0.51 | 78 | 1008.7 |
| 20260506184550 | 20 | 0 | 0.0 | 8.0 | 0.00 | 0.51 | 0.51 | 83 | 1008.8 |
| 20260506183057 | 19 | 270 | 1.6 | 6.4 | 0.00 | 0.51 | 0.51 | 83 | 1008.9 |
| 20260506181549 | 18 | 0 | 0.0 | 4.8 | 0.00 | 0.51 | 0.51 | 83 | 1009.0 |
| 20260506180058 | 18 | 169 | 0.0 | 3.2 | 0.00 | 0.51 | 0.51 | 85 | 1009.3 |
| 20260506174600 | 18 | 0 | 0.0 | 8.0 | 0.00 | 0.51 | 0.51 | 86 | 1009.3 |
| 20260506173118 | 17 | 146 | 0.0 | 9.7 | 0.00 | 0.51 | 0.51 | 87 | 1009.2 |
| 20260506171551 | 17 | 271 | 0.0 | 4.8 | 0.00 | 0.51 | 0.51 | 89 | 1009.4 |
| 20260506170050 | 17 | 157 | 0.0 | 4.8 | 0.00 | 0.51 | 0.51 | 90 | 1009.4 |
| 20260506164551 | 16 | 160 | 1.6 | 8.0 | 0.00 | 0.51 | 0.51 | 90 | 1009.6 |
| 20260506163055 | 16 | 0 | 0.0 | 4.8 | 0.00 | 0.51 | 0.51 | 92 | 1009.6 |
| 20260506161553 | 16 | 233 | 0.0 | 9.7 | 0.03 | 0.51 | 0.51 | 92 | 1009.7 |
| 20260506160049 | 16 | 0 | 0.0 | 4.8 | 0.03 | 0.51 | 0.51 | 93 | 1009.7 |
| 20260506154557 | 16 | 131 | 1.6 | 8.0 | 0.05 | 0.51 | 0.51 | 92 | 1009.9 |
| 20260506153058 | 16 | 0 | 0.0 | 4.8 | 0.08 | 0.51 | 0.51 | 93 | 1009.7 |
| 20260506151558 | 15 | 0 | 0.0 | 3.2 | 0.10 | 0.48 | 0.48 | 93 | 1010.0 |
| 20260506144609 | 15 | 273 | 0.0 | 4.8 | 0.20 | 0.46 | 0.46 | 92 | 1010.5 |
| 20260506143057 | 15 | 171 | 0.0 | 6.4 | 0.23 | 0.43 | 0.43 | 92 | 1010.4 |
| 20260506141555 | 16 | 73 | 0.0 | 1.6 | 0.20 | 0.38 | 0.38 | 92 | 1010.3 |
| 20260506140110 | 16 | 0 | 0.0 | 3.2 | 0.25 | 0.33 | 0.33 | 91 | 1010.4 |
| 20260506134554 | 16 | 0 | 0.0 | 1.6 | 0.23 | 0.25 | 0.25 | 90 | 1010.6 |
| 20260506133133 | 16 | 0 | 0.0 | 1.6 | 0.20 | 0.20 | 0.20 | 89 | 1011.1 |
| 20260506131558 | 16 | 0 | 0.0 | 1.6 | 0.18 | 0.18 | 0.18 | 88 | 1010.7 |
| 20260506130128 | 16 | 0 | 0.0 | 1.6 | 0.08 | 0.08 | 0.08 | 86 | 1010.7 |
| 20260506124551 | 17 | 0 | 0.0 | 0.0 | 0.03 | 0.03 | 0.03 | 84 | 1010.4 |
| 20260506123049 | 17 | 110 | 0.0 | 1.6 | 0.00 | 0.00 | 0.00 | 82 | 1010.5 |
| 20260506121554 | 17 | 0 | 0.0 | 3.2 | 0.00 | 0.00 | 0.00 | 80 | 1010.9 |
| 20260506120055 | 17 | 0 | 0.0 | 1.6 | 0.00 | 0.00 | 0.00 | 78 | 1010.9 |
| 20260506114553 | 17 | 0 | 0.0 | 1.6 | 0.00 | 0.00 | 0.00 | 77 | 1010.8 |
| 20260506113054 | 17 | 0 | 0.0 | 4.8 | 0.00 | 0.00 | 0.00 | 76 | 1010.4 |
| 20260506111554 | 18 | 175 | 0.0 | 9.7 | 0.00 | 0.00 | 0.00 | 75 | 1010.2 |
| 20260506110055 | 17 | 192 | 0.0 | 3.2 | 0.00 | 0.00 | 0.00 | 76 | 1010.1 |